Location: *
(50.2903°S, 172.5375°W)
Time: 15:58:35
(UTC+00:00)

Cosmos 44 - Pass Details

Date: 17 November 2019
Orbit: 594 x 768 km, 65.1° (Epoch: 12 December)

Event Time Altitude Azimuth Distance (km) Brightness Sun altitude
Exits shadow 13:06:05 16° 284° (WNW) 1,824 5.1 -16.5°
Maximum altitude 13:09:47 42° 218° (SW) 1,048 4.4 -16.2°
Drops below altitude 10° 13:14:46 10° 147° (SSE) 2,290 7.3 -15.9°
Sets 13:17:21 0° 140° (SE) 3,240 8.5 -15.7°
